Regional Weather Roundup
Issued by NWS Huntsville, AL

Home | Current Version | Previous Version | Text Only | Print | Product List | Glossary On
Versions: 1 2 3 4 5 6 7 8 9 10 11 12 13 14 15 16 17 18 19 20 21 22 23 24 25 26 27 28 29 30 31 32 33 34 35 36 37 38 39 40 41 42 43 44 45 46 47 48 49 50
000
ASUS44 KHUN 292210
RWRHUN

WEATHER ROUNDUP FOR THE TENNESSEE VALLEY
NATIONAL WEATHER SERVICE HUNTSVILLE AL
500 PM CDT FRI MAY 29 2015

ALZ001>004-292300-
NORTHWEST ALABAMA

CITY           SKY/WX    TMP DP  RH WIND       PRES   REMARKS
BANKHEAD NF      N/A     79  69  70 SE1         N/A
SHOALS AIRPORT SUNNY     83  67  58 SE10      30.07F
SHOALS TVA RES   N/A     81 N/A N/A MISG        N/A
$$

ALZ005>007-016-292300-
NORTH CENTRAL ALABAMA

CITY           SKY/WX    TMP DP  RH WIND       PRES   REMARKS
DECATUR AP     MOSUNNY   81  68  64 SE9       30.08F
HUNTSVILLE AP  MOSUNNY   84  68  58 SE14      30.08F
HUN NWS/UAH      N/A     82  65  55 SE8         N/A
MERIDIANVILLE  SUNNY     81  59  47 SE6       30.10F
REDSTONE ARSN  MOSUNNY   82  68  63 SE8       30.08F
VINEMONT AP    FAIR      80  67  64 SE6       30.13S
$$

ALZ008>010-292300-
NORTHEAST ALABAMA

CITY           SKY/WX    TMP DP  RH WIND       PRES   REMARKS
ALBERTVILLE    PTSUNNY   77  70  78 SE6       30.13F
FORT PAYNE     MOSUNNY   79  61  53 S7        30.12F
SCOTTSBORO HCN   N/A     79 N/A N/A MISG        N/A
VALLEY HEAD      N/A     75 N/A N/A MISG        N/A
$$

TNZ076-096-097-292300-
SOUTHEASTERN MIDDLE TENNESSEE

CITY           SKY/WX    TMP DP  RH WIND       PRES   REMARKS
TULLAHOMA      MOSUNNY   79  64  61 S7        30.13F
WINCHESTER     MOSUNNY   79  68  69 S8        30.13F
$$

...SURROUNDING SITES...

CITY           SKY/WX    TMP DP  RH WIND       PRES   REMARKS
ATLANTA        MOSUNNY   83  62  49 E9        30.15F
ANNISTON       CLOUDY    74  67  78 CALM      30.12F
BIRMINGHAM     RAIN      77  68  73 SE10G25   30.12S
CHATTANOOGA    PTSUNNY   75  68  78 N5        30.14F
CORINTH        PTSUNNY   84  68  58 SE9       30.04S
DALTON         CLOUDY    75  70  83 CALM      30.13F
GADSDEN        PTSUNNY  N/A N/A N/A CALM      30.11F
GOLDEN TRNGL   MOSUNNY   82  68  61 SE13      30.04F
HALEYVILLE     PTSUNNY   82  70  67 S3        30.11F
JACKSON TN     MOSUNNY   82  68  62 SE6       30.03F
LEWISBURG      PTSUNNY   82  67  60 S9        30.08F
MEMPHIS        LGT RAIN  75  68  78 S6        30.02S
NASHVILLE      MOSUNNY   82  67  60 S13       30.07F
OXFORD MS      FAIR      77  66  69 SE6       30.05F
ROME           CLOUDY    77  71  82 NW8       30.12F
SAVANNAH       SUNNY     82  32  16 S8        30.06S
TUPELO         MOSUNNY   84  67  56 S10       30.04F
TUSCALOOSA     SUNNY     86  65  49 S9        30.06F
$$

...GULF COAST WEATHER...

CITY           SKY/WX    TMP DP  RH WIND       PRES   REMARKS
GULFPORT       MOSUNNY   85  69  58 SE16      30.05F
PASCAGOULA     SUNNY     83  67  58 SE13      30.06F
MOBILE         MOSUNNY   84  66  54 S13       30.06F
GULF SHORES    PTCLDY    82  73  72 SE12      30.07S
PENSACOLA      MOSUNNY   83  71  67 SE12      30.06F
DESTIN         MOSUNNY   84  70  62 S5        30.07F
PANAMA CITY    SUNNY     84  69  61 SW14      30.06F
APPALACHICOLA  SUNNY     86  62  44 SE10      30.08F
$$



USA.gov is the U.S. government's official web portal to all federal, state and local government web resources and services.